DELTA 1 DEB, 7054

Orbit data source: Space-Track

DELTA 1 DEB, 7054 is space debris in SSO originally from a launch on Tue, 06 Nov 1973 UTC launched from the Air Force Western Test Range (AFWTR). Debris objects in space refer to the collection of defunct objects orbiting the Earth. Examples of debris include non-operational satellites, rocket bodies, and fragments generated from explosions, collisions, or faulty payload assembly.

Loading next visibility...
Identifier
7054, 1973-086AW
Orbit
SSO
Country
Flag of USUS
Related business
Manufacturer
Unknown
Mission
Spacecraft
Bus & Motor
Unknown
Mass
Unknown
Launch date (UTC)
1973-11-06 (52 years ago)
Launch vehicle
Unknown
Launch site
Air Force Western Test Range (AFWTR)
Object type
Payload
Rocket body
Debris
Shape & HBR
Unknown shape, 0.3 m
Radar Cross Section
Medium (>0.1 m² and <1 m²)

Expand to show TLE details & history
Last TLE update: 8 hours ago

TLE from 8 hours ago
0 DELTA 1 DEB
1 07054U 73086AW  25292.32593935 -.00000357  00000-0 -76694-3 0  9991
2 07054 101.5456 311.6420 0313617  50.3134 329.5274 13.03788233469069
Epoch: 2025-10-19T07:49Z
TLE epoch observation values (Epoch: 2025-10-19T07:49:21.159Z)
Latitude
17.57286°
Longitude
162.56952°
Altitude
1,045.228 km
Speed
7.428 km/s
True Right ascension
20h 31m 48s
True Declination
17° 28' 41"
Sunlit
Object was in daylight at epoch
Visualization orbit readout
Latitude
Unknown
Longitude
Unknown
Altitude
Unknown
Speed
Unknown
Apparent Right ascension
Unknown
Apparent Declination
Unknown
Sunlit
N/A
Visualization observer readout
Local Sidereal Time
10:50:52
Azimuth
Unknown
Elevation
Unknown
Doppler factor
Unknown
Orbital elements
Apogee altitude
1,483.811 km
Perigee altitude
1,005.678 km
Semi-major axis
7,622.881 km
Eccentricity
0.03136
Inclination
101.5456°
RAAN
311.642°
Arg. of periapsis
50.3134°
True anomaly
327.6416°
Mean anomaly
329.5274°
Eccentric anomaly
328.59096°
Mean motion
3.2611 °/min
Orbital period
110.39 mins
BSTAR
-0.00076694
Loading maneuver chart data...
Computing Atmospheric mass density...
Loading historical data...
Loading historical data...
Loading historical data...
Loading historical data...
Loading historical data...
Loading historical data...
Loading historical data...

Documentation

Showing up to 5 results
|